This demonstration page uses our WeatherBlox Daily Observations layout. Learn more.

Left ArrowRight Arrow

53.62937, 11.41316

Hourly Observations for December 29, 2016

Temp ( °F °C ) Dew Point ( °F °C ) Humidity (%) Winds ( mph kmh ) Pressure ( in mb ) Visibility ( mi km ) Precip ( " mm )
6:50 am 06:50 Mostly Cloudy 39 4 34 1 81 81 W 5 7 30.74 1041 30 48 N/A
7:20 am 07:20 Mostly Cloudy 39 4 32 0 75 75 W 7 11 30.74 1041 30 48 N/A
7:50 am 07:50 Mostly Cloudy 39 4 32 0 75 75 WSW 10 17 30.74 1041 30 48 N/A
8:20 am 08:20 Mostly Cloudy 39 4 32 0 75 75 WSW 12 19 30.74 1041 30 48 N/A
8:50 am 08:50 Mostly Cloudy 39 4 32 0 75 75 W 12 19 30.74 1041 30 48 N/A
9:20 am 09:20 Mostly Cloudy 37 3 32 0 81 81 WSW 8 13 30.74 1041 30 48 N/A
9:50 am 09:50 Mostly Sunny 37 3 32 0 81 81 WSW 6 9 30.74 1041 30 48 N/A
10:20 am 10:20 Mostly Sunny 37 3 32 0 81 81 WSW 6 9 30.74 1041 7 11 N/A
10:50 am 10:50 Mostly Sunny 39 4 32 0 75 75 SSW 7 11 30.74 1041 7 11 N/A
11:20 am 11:20 Mostly Sunny 39 4 32 0 75 75 SW 7 11 30.74 1041 7 11 N/A
11:50 am 11:50 Mostly Sunny 39 4 32 0 75 75 SW 8 13 30.71 1040 7 11 N/A
12:20 pm 12:20 Mostly Sunny 41 5 32 0 70 70 WSW 12 19 30.71 1040 7 11 N/A
12:50 pm 12:50 Mostly Sunny 41 5 32 0 70 70 WSW 10 17 30.71 1040 7 11 N/A
1:20 pm 13:20 Mostly Sunny 41 5 32 0 70 70 WSW 12 19 30.71 1040 7 11 N/A
1:50 pm 13:50 Mostly Sunny 41 5 32 0 70 70 SW 12 19 30.71 1040 7 11 N/A
2:20 pm 14:20 Mostly Sunny 41 5 32 0 70 70 SW 9 15 30.68 1039 7 11 N/A
2:50 pm 14:50 Mostly Sunny 39 4 32 0 75 75 SW 8 13 30.68 1039 7 11 N/A
3:20 pm 15:20 Mostly Sunny 39 4 32 0 75 75 SW 8 13 30.68 1039 7 11 N/A
3:50 pm 15:50 Mostly Sunny 39 4 32 0 75 75 SW 7 11 30.68 1039 7 11 N/A
4:20 pm 16:20 Mostly Clear 37 3 32 0 81 81 SSW 5 7 30.68 1039 7 11 N/A
4:50 pm 16:50 Mostly Clear 37 3 32 0 81 81 S 2 4 30.68 1039 7 11 N/A
5:20 pm 17:20 Mostly Clear 36 2 32 0 87 87 SSW 5 7 30.68 1039 7 11 N/A
5:50 pm 17:50 Mostly Clear 37 3 32 0 81 81 SW 7 11 30.65 1038 7 11 N/A
6:20 pm 18:20 Mostly Clear 36 2 32 0 87 87 SW 6 9 30.65 1038 7 11 N/A

Powered by AerisWeather